Location: Jablonec nad Nisou
(50.7170°N, 15.1830°E)
Time: 17:53:43
(UTC+02:00)

ISS - Pass Details

Date: 28 March 2019
Orbit: 408 x 410 km, 51.6° (Epoch: 24 April)

Event Time Altitude Azimuth Distance (km) Brightness Sun altitude
Rises 19:18:34 0° 258° (WSW) 2,334 1.2 -9.2°
Reaches altitude 10° 19:20:39 10° 259° (W) 1,473 0.1 -9.5°
Maximum altitude 19:23:57 86° 350° (N) 415 -3.8 -10.0°
Enters shadow 19:26:52 13° 78° (ENE) 1,311 -1.8 -10.4°
